User: anonymous   Login
Location: The Jewett Observatory
(46.7288°N, 117.1525°W)
Time: 20:33:43
(UTC-07:00)
Language:

Cosmos 1844 Rocket - Orbit

View from above orbital plane
View from above orbital plane
View from above satellite
View from above satellite

Ground track
Ground track

The orbit data is extracted from the following two-line orbital elements,

1 17974U 87041B   15241.15534171 -.00000184  00000-0 -67584-4 0  9997
2 17974 071.0065 216.2000 0015637 312.1747 121.8596 14.17175583463453
Epoch (UTC): 29 August 2015 03:43:41
Eccentricity: 0.0015637
inclination: 71.0065°
perigee height: 823 km
apogee height: 846 km
right ascension of ascending node: 216.2000°
argument of perigee: 312.1747°
revolutions per day: 14.17175583
mean anomaly at epoch: 121.8596°
orbit number at epoch: 46345

The dashed part of the orbit path shows where the satellite is in the earth's shadow,  

DLR